User: anonymous   Login
Location: Unspecified
(0.0000°N, 0.0000°E)
Time: 09:06:10
(UTC+02:00)
Language:

Iridium 39 - Orbit

View from above orbital plane
View from above orbital plane
View from above satellite
View from above satellite

Ground track
Ground track

The orbit data is extracted from the following two-line orbital elements,

1 25042U 97069D   18142.81310103 +.00000090 +00000-0 +19451-4 0  9990
2 25042 086.3959 234.2790 0016711 262.1175 097.8131 14.46239319075544
Epoch (UTC): 22 May 2018 19:30:51
Eccentricity: 0.0016711
inclination: 86.3959°
perigee height: 726 km
apogee height: 750 km
right ascension of ascending node: 234.2790°
argument of perigee: 262.1175°
revolutions per day: 14.46239319
mean anomaly at epoch: 97.8131°
orbit number at epoch: 7554

The dashed part of the orbit path shows where the satellite is in the earth's shadow,  

DLR